Location: C�mpuri de-Sus
(45.9500°N, 22.5500°E)
Time: 04:50:30
(UTC+00:00)

Cosmos 839 Rocket - Pass Details

Date: 31 May 2022
Orbit: 968 x 2085 km, 65.9° (Epoch: 06 July)

Event Time Altitude Azimuth Distance (km) Brightness Sun altitude
Rises 22:25:37 0° 323° (NW) 3,701 7.9 -22.0°
Reaches altitude 10° 22:28:02 10° 321° (NW) 2,796 7.1 -22.0°
Maximum altitude 22:34:26 70° 240° (WSW) 1,187 4.2 -22.0°
Enters shadow 22:37:33 37° 168° (SSE) 1,772 4.8 -22.0°
